Location: Avully
(45.9633°N, 6.0228°E)
Time: 21:45:17
(UTC+00:00)

Cosmos 2360 Rocket - Pass Details

Date: 12 August 2024
Orbit: 834 x 843 km, 71.0° (Epoch: 10 September)

Event Time Altitude Azimuth Distance (km) Brightness Sun altitude
Exits shadow 00:39:45 59° 285° (WNW) 969 2.4 -27.7°
Maximum altitude 00:40:02 60° 300° (WNW) 962 2.4 -27.7°
Drops below altitude 10° 00:45:38 10° 20° (NNE) 2,469 5.6 -27.4°
Sets 00:48:08 0° 25° (NNE) 3,406 6.6 -27.3°
